,,,PA_Meas_PMT16A,,PR_Meas_QMR101_102,,RH_Meas_QMH101,,SR_Meas_QMS101,,TA_Meas_QMH101,,GenWind,,GenWind,
date,time,status,PA,status,PR,status,RH,status,SR,status,TA,status,DirAvg,status,SpdAvg,
2009-08-19, 00:00:04,VALID,1002.71,VALID,0,VALID,88.5036,VALID,0,VALID,23.1176,VALID,33,VALID,0.417969,
2009-08-19, 00:01:04,VALID,1002.71,VALID,0,VALID,88.5341,VALID,0,VALID,23.1354,VALID,38,VALID,0.914844,
2009-08-19, 00:02:04,VALID,1002.71,VALID,0,VALID,88.0306,VALID,0,VALID,23.1566,VALID,46,VALID,1.47734,
2009-08-19, 00:03:04,VALID,1002.69,VALID,0,VALID,88.0611,VALID,0,VALID,23.1354,VALID,41,VALID,1.70273,
2009-08-19, 00:04:04,VALID,1002.7,VALID,0,VALID,88.0611,VALID,0,VALID,23.1176,VALID,41,VALID,1.28672,
2009-08-19, 00:05:04,VALID,1002.7,VALID,0,VALID,88.1145,VALID,0,VALID,23.0769,VALID,45,VALID,0.998438,
2009-08-19, 00:06:04,VALID,1002.67,VALID,0,VALID,88.2442,VALID,0,VALID,23.0769,VALID,50,VALID,0.822266,
2009-08-19, 00:07:04,VALID,1002.66,VALID,0,VALID,88.3357,VALID,0,VALID,23.0786,VALID,51,VALID,1.3668,
2009-08-19, 00:08:04,VALID,1002.64,VALID,0,VALID,88.2366,VALID,0,VALID,23.0981,VALID,48,VALID,1.64023,
2009-08-19, 00:09:04,VALID,1002.63,VALID,0,VALID,88.1832,VALID,0,VALID,23.0769,VALID,49,VALID,1.81875,
2009-08-19, 00:10:04,VALID,1002.61,VALID,0,VALID,88.6714,VALID,0,VALID,23.0981,VALID,44,VALID,1.71523,
2009-08-19, 00:11:04,VALID,1002.65,VALID,0,VALID,88.9385,VALID,0,VALID,23.0964,VALID,60,VALID,0.994141,
2009-08-19, 00:12:04,VALID,1002.66,VALID,0,VALID,89.3428,VALID,0,VALID,23.0964,VALID,77,VALID,0.890234,
2009-08-19, 00:13:04,VALID,1002.58,VALID,0,VALID,89.6709,VALID,0,VALID,23.1159,VALID,55,VALID,1.20352,
2009-08-19, 00:14:04,VALID,1002.57,VALID,0,VALID,89.4954,VALID,0,VALID,23.1354,VALID,49,VALID,1.55977,
2009-08-19, 00:15:04,VALID,1002.56,VALID,0,VALID,89.2971,VALID,0,VALID,23.1354,VALID,46,VALID,1.33086,
2009-08-19, 00:16:04,VALID,1002.61,VALID,0,VALID,89.1368,VALID,0,VALID,23.0964,VALID,55,VALID,0.378906,
2009-08-19, 00:17:04,VALID,1002.59,VALID,0,VALID,89.3963,VALID,0,VALID,23.0981,VALID,77,VALID,0.891406,
2009-08-19, 00:18:04,VALID,1002.56,VALID,0,VALID,89.3886,VALID,0,VALID,23.0769,VALID,51,VALID,1.24102,
2009-08-19, 00:19:04,VALID,1002.53,VALID,0,VALID,89.4039,VALID,0,VALID,23.0981,VALID,43,VALID,1.25352,
2009-08-19, 00:20:04,VALID,1002.53,VALID,0,VALID,89.4497,VALID,0,VALID,23.0981,VALID,38,VALID,1.30469,
2009-08-19, 00:21:04,VALID,1002.53,VALID,0,VALID,89.4191,VALID,0,VALID,23.0786,VALID,37,VALID,0.899609,
2009-08-19, 00:22:04,VALID,1002.52,VALID,0,VALID,89.4268,VALID,0,VALID,23.0183,VALID,37,VALID,0.775391,
2009-08-19, 00:23:04,VALID,1002.52,VALID,0,VALID,89.6709,VALID,0,VALID,23.0183,VALID,37,VALID,0.705859,
2009-08-19, 00:24:04,VALID,1002.48,VALID,0,VALID,89.6709,VALID,0,VALID,22.9811,VALID,33,VALID,0.844141,
2009-08-19, 00:25:04,VALID,1002.46,VALID,0,VALID,89.7854,VALID,0,VALID,22.9403,VALID,20,VALID,0.976953,
2009-08-19, 00:26:04,VALID,1002.47,VALID,0,VALID,89.9609,VALID,0,VALID,22.9403,VALID,18,VALID,0.777344,
2009-08-19, 00:27:04,VALID,1002.5,VALID,0,VALID,89.9074,VALID,0,VALID,22.9208,VALID,18,VALID,0.398047,
2009-08-19, 00:28:04,VALID,1002.49,VALID,0,VALID,89.9685,VALID,0,VALID,22.9225,VALID,18,VALID,0.289844,
2009-08-19, 00:29:04,VALID,1002.45,VALID,0,VALID,90.1363,VALID,0,VALID,22.9208,VALID,18,VALID,0.364453,
2009-08-19, 00:30:04,VALID,1002.45,VALID,0,VALID,90.0829,VALID,0,VALID,22.9208,VALID,342,VALID,0.628516,
2009-08-19, 00:31:04,VALID,1002.48,VALID,0,VALID,90.0982,VALID,0,VALID,22.9208,VALID,342,VALID,0.401953,
2009-08-19, 00:32:04,VALID,1002.46,VALID,0,VALID,90.0448,VALID,0,VALID,22.9403,VALID,342,VALID,0.0949219,
2009-08-19, 00:33:04,VALID,1002.4,VALID,0,VALID,90.0829,VALID,0,VALID,22.9615,VALID,356,VALID,0.647266,
2009-08-19, 00:34:04,VALID,1002.39,VALID,0,VALID,89.9532,VALID,0,VALID,22.9403,VALID,26,VALID,0.679297,
2009-08-19, 00:35:04,VALID,1002.38,VALID,0,VALID,89.8617,VALID,0,VALID,22.9598,VALID,42,VALID,0.508594,
2009-08-19, 00:36:04,VALID,1002.38,VALID,0,VALID,89.7549,VALID,0,VALID,22.9403,VALID,42,VALID,0.157422,
2009-08-19, 00:37:04,VALID,1002.43,VALID,0,VALID,89.8998,VALID,0,VALID,22.9615,VALID,262,VALID,0.599609,
2009-08-19, 00:38:04,VALID,1002.4,VALID,0,VALID,90.0143,VALID,0,VALID,22.9403,VALID,244,VALID,0.360547,
2009-08-19, 00:39:04,VALID,1002.44,VALID,0,VALID,89.999,VALID,0,VALID,22.9598,VALID,244,VALID,0.0238281,
2009-08-19, 00:40:04,VALID,1002.39,VALID,0,VALID,90.0066,VALID,0,VALID,22.9598,VALID,244,VALID,0.00507812,
2009-08-19, 00:41:04,VALID,1002.4,VALID,0,VALID,90.0448,VALID,0,VALID,22.9811,VALID,244,VALID,0.0507813,
2009-08-19, 00:42:04,VALID,1002.4,VALID,0,VALID,90.0753,VALID,0,VALID,22.9811,VALID,244,VALID,0.248047,
2009-08-19, 00:43:04,VALID,1002.37,VALID,0,VALID,89.9151,VALID,0,VALID,23.0006,VALID,244,VALID,0.330469,
2009-08-19, 00:44:04,VALID,1002.35,VALID,0,VALID,89.7777,VALID,0,VALID,22.9793,VALID,244,VALID,0.241797,
2009-08-19, 00:45:04,VALID,1002.31,VALID,0,VALID,89.8235,VALID,0,VALID,22.9598,VALID,235,VALID,0.716406,
2009-08-19, 00:46:04,VALID,1002.29,VALID,0,VALID,89.7854,VALID,0,VALID,23.0006,VALID,116,VALID,0.631641,
2009-08-19, 00:47:04,VALID,1002.27,VALID,0,VALID,89.8083,VALID,0,VALID,22.9811,VALID,104,VALID,0.814844,
2009-08-19, 00:48:04,VALID,1002.21,VALID,0,VALID,90.0371,VALID,0,VALID,23.0183,VALID,84,VALID,0.650391,
2009-08-19, 00:49:04,VALID,1002.23,VALID,0,VALID,89.999,VALID,0,VALID,23.0573,VALID,155,VALID,0.809375,
2009-08-19, 00:50:04,VALID,1002.24,VALID,0,VALID,90.5026,VALID,0,VALID,23.1549,VALID,150,VALID,1.45977,
2009-08-19, 00:51:04,VALID,1002.19,VALID,0,VALID,89.8693,VALID,0,VALID,23.3713,VALID,143,VALID,1.4457,
2009-08-19, 00:52:04,VALID,1002.19,VALID,0,VALID,88.8851,VALID,0,VALID,23.5469,VALID,143,VALID,1.63828,
2009-08-19, 00:53:04,VALID,1002.14,VALID,0,VALID,88.1068,VALID,0,VALID,23.6835,VALID,125,VALID,1.4707,
2009-08-19, 00:54:04,VALID,1002.16,VALID,0,VALID,87.3286,VALID,0,VALID,23.7988,VALID,140,VALID,1.53594,
2009-08-19, 00:55:04,VALID,1002.16,VALID,0,VALID,86.6649,VALID,0,VALID,23.9354,VALID,152,VALID,1.7918,
2009-08-19, 00:56:04,VALID,1002.16,VALID,0,VALID,86.0392,VALID,0,VALID,24.0738,VALID,148,VALID,1.56445,
2009-08-19, 00:57:04,VALID,1002.16,VALID,0,VALID,85.528,VALID,0,VALID,24.15,VALID,143,VALID,1.45781,
2009-08-19, 00:58:04,VALID,1002.17,VALID,0,VALID,85.0397,VALID,0,VALID,24.2495,VALID,146,VALID,1.33906,
2009-08-19, 00:59:04,VALID,1002.18,VALID,0,VALID,84.6659,VALID,0,VALID,24.308,VALID,154,VALID,1.71836,
2009-08-19, 01:00:04,VALID,1002.19,VALID,0,VALID,84.3302,VALID,0,VALID,24.3452,VALID,149,VALID,1.74414,
2009-08-19, 01:01:04,VALID,1002.18,VALID,0,VALID,84.1471,VALID,0,VALID,24.4251,VALID,141,VALID,1.81133,
2009-08-19, 01:02:04,VALID,1002.21,VALID,0,VALID,83.7046,VALID,0,VALID,24.4428,VALID,134,VALID,2.57109,
2009-08-19, 01:03:04,VALID,1002.19,VALID,0,VALID,83.3841,VALID,0,VALID,24.5227,VALID,138,VALID,2.55469,
2009-08-19, 01:04:04,VALID,1002.19,VALID,0,VALID,83.3155,VALID,0,VALID,24.5422,VALID,139,VALID,1.56562,
2009-08-19, 01:05:04,VALID,1002.19,VALID,0,VALID,83.0637,VALID,0,VALID,24.5813,VALID,132,VALID,1.81172,
2009-08-19, 01:06:04,VALID,1002.17,VALID,0,VALID,83.0866,VALID,0,VALID,24.5794,VALID,132,VALID,1.59492,
2009-08-19, 01:07:04,VALID,1002.21,VALID,0,VALID,83.2163,VALID,0,VALID,24.5599,VALID,146,VALID,1.52344,
2009-08-19, 01:08:04,VALID,1002.22,VALID,0,VALID,83.201,VALID,0,VALID,24.5618,VALID,158,VALID,2.28711,
2009-08-19, 01:09:04,VALID,1002.2,VALID,0,VALID,83.1247,VALID,0,VALID,24.5813,VALID,137,VALID,1.07539,
2009-08-19, 01:10:04,VALID,1002.2,VALID,0,VALID,82.9492,VALID,0,VALID,24.5599,VALID,148,VALID,1.67578,
2009-08-19, 01:11:04,VALID,1002.17,VALID,0,VALID,82.6898,VALID,0,VALID,24.5794,VALID,149,VALID,1.86289,
2009-08-19, 01:12:04,VALID,1002.18,VALID,0,VALID,82.6974,VALID,0,VALID,24.5989,VALID,153,VALID,1.18711,
2009-08-19, 01:13:04,VALID,1002.14,VALID,0,VALID,82.5983,VALID,0,VALID,24.5989,VALID,159,VALID,1.21328,
2009-08-19, 01:14:04,VALID,1002.15,VALID,0,VALID,82.6593,VALID,0,VALID,24.5989,VALID,151,VALID,1.62539,
2009-08-19, 01:15:04,VALID,1002.12,VALID,0,VALID,82.6974,VALID,0,VALID,24.5989,VALID,150,VALID,1.59297,
2009-08-19, 01:16:04,VALID,1002.12,VALID,0,VALID,82.6517,VALID,0,VALID,24.5794,VALID,153,VALID,1.38906,
2009-08-19, 01:17:04,VALID,1002.08,VALID,0,VALID,82.7127,VALID,0,VALID,24.5794,VALID,156,VALID,1.38359,
2009-08-19, 01:18:04,VALID,1002.06,VALID,0,VALID,82.6135,VALID,0,VALID,24.5813,VALID,163,VALID,1.34375,
2009-08-19, 01:19:04,VALID,1002.05,VALID,0,VALID,82.4609,VALID,0,VALID,24.5794,VALID,150,VALID,1.12227,
2009-08-19, 01:20:04,VALID,1002.01,VALID,0,VALID,82.4457,VALID,0,VALID,24.6008,VALID,150,VALID,1.06602,
2009-08-19, 01:21:04,VALID,1002.01,VALID,0,VALID,82.2244,VALID,0,VALID,24.5989,VALID,160,VALID,1.62539,
2009-08-19, 01:22:04,VALID,1001.99,VALID,0,VALID,81.9955,VALID,0,VALID,24.6203,VALID,154,VALID,1.81875,
2009-08-19, 01:23:04,VALID,1001.97,VALID,0,VALID,81.8887,VALID,0,VALID,24.638,VALID,152,VALID,1.14844,
2009-08-19, 01:24:04,VALID,1002,VALID,0,VALID,81.9269,VALID,0,VALID,24.6575,VALID,162,VALID,1.54883,
2009-08-19, 01:25:04,VALID,1001.97,VALID,0,VALID,81.8811,VALID,0,VALID,24.638,VALID,176,VALID,1.91523,
2009-08-19, 01:26:04,VALID,1001.95,VALID,0,VALID,81.7056,VALID,0,VALID,24.6575,VALID,157,VALID,1.56211,
2009-08-19, 01:27:04,VALID,1001.93,VALID,0,VALID,81.614,VALID,0,VALID,24.6789,VALID,154,VALID,1.32813,
2009-08-19, 01:28:04,VALID,1001.93,VALID,0,VALID,81.5378,VALID,0,VALID,24.6984,VALID,160,VALID,1.68203,
2009-08-19, 01:29:04,VALID,1001.92,VALID,0,VALID,81.4615,VALID,0,VALID,24.6965,VALID,167,VALID,1.67969,
2009-08-19, 01:30:04,VALID,1001.88,VALID,0,VALID,81.2783,VALID,0,VALID,24.6965,VALID,138,VALID,1.5957,
2009-08-19, 01:31:04,VALID,1001.87,VALID,0,VALID,81.3317,VALID,0,VALID,24.6984,VALID,140,VALID,1.31836,
2009-08-19, 01:32:04,VALID,1001.87,VALID,0,VALID,81.2783,VALID,0,VALID,24.677,VALID,164,VALID,2.17969,
2009-08-19, 01:33:04,VALID,1001.88,VALID,0,VALID,81.1334,VALID,0,VALID,24.7179,VALID,158,VALID,1.92188,
2009-08-19, 01:34:04,VALID,1001.9,VALID,0,VALID,81.0495,VALID,0,VALID,24.7374,VALID,151,VALID,1.47578,
2009-08-19, 01:35:04,VALID,1001.89,VALID,0,VALID,80.9579,VALID,0,VALID,24.7356,VALID,154,VALID,1.53203,
2009-08-19, 01:36:04,VALID,1001.88,VALID,0,VALID,80.9198,VALID,0,VALID,24.7356,VALID,163,VALID,1.21328,
2009-08-19, 01:37:04,VALID,1001.87,VALID,0,VALID,80.8511,VALID,0,VALID,24.757,VALID,155,VALID,1.08477,
2009-08-19, 01:38:04,VALID,1001.83,VALID,0,VALID,80.8663,VALID,0,VALID,24.716,VALID,156,VALID,0.711328,
2009-08-19, 01:39:04,VALID,1001.85,VALID,0,VALID,80.935,VALID,0,VALID,24.6965,VALID,166,VALID,1.19531,
2009-08-19, 01:40:04,VALID,1001.78,VALID,0,VALID,81.0723,VALID,0,VALID,24.6789,VALID,149,VALID,0.767187,
2009-08-19, 01:41:04,VALID,1001.78,VALID,0,VALID,81.1868,VALID,0,VALID,24.6575,VALID,151,VALID,1.09844,
2009-08-19, 01:42:04,VALID,1001.77,VALID,0,VALID,81.2249,VALID,0,VALID,24.638,VALID,150,VALID,0.989453,
2009-08-19, 01:43:04,VALID,1001.72,VALID,0,VALID,81.2249,VALID,0,VALID,24.6594,VALID,146,VALID,0.598828,
2009-08-19, 01:44:04,VALID,1001.75,VALID,0,VALID,81.3775,VALID,0,VALID,24.638,VALID,133,VALID,0.741016,
2009-08-19, 01:45:04,VALID,1001.7,VALID,0,VALID,81.5912,VALID,0,VALID,24.6184,VALID,140,VALID,0.626562,
2009-08-19, 01:46:04,VALID,1001.69,VALID,0,VALID,81.8048,VALID,0,VALID,24.5794,VALID,137,VALID,0.825,
2009-08-19, 01:47:04,VALID,1001.68,VALID,0,VALID,81.9116,VALID,0,VALID,24.5404,VALID,136,VALID,0.660937,
2009-08-19, 01:48:04,VALID,1001.66,VALID,0,VALID,82.0642,VALID,0,VALID,24.5209,VALID,127,VALID,0.469531,
2009-08-19, 01:49:04,VALID,1001.63,VALID,0,VALID,82.1023,VALID,0,VALID,24.4837,VALID,127,VALID,0.463281,
2009-08-19, 01:50:04,VALID,1001.62,VALID,0,VALID,82.2015,VALID,0,VALID,24.4214,VALID,127,VALID,0.336719,
2009-08-19, 01:51:04,VALID,1001.61,VALID,0,VALID,82.5296,VALID,0,VALID,24.3842,VALID,127,VALID,0.304297,
2009-08-19, 01:52:04,VALID,1001.6,VALID,0,VALID,83.1018,VALID,0,VALID,24.347,VALID,125,VALID,0.500391,
2009-08-19, 01:53:04,VALID,1001.57,VALID,0,VALID,83.6359,VALID,0,VALID,24.2476,VALID,96,VALID,0.438281,
2009-08-19, 01:54:04,VALID,1001.54,VALID,0,VALID,84.1166,VALID,0,VALID,24.1696,VALID,96,VALID,0.306641,
2009-08-19, 01:55:04,VALID,1001.49,VALID,0,VALID,84.6506,VALID,0,VALID,24.111,VALID,96,VALID,0.585156,
2009-08-19, 01:56:04,VALID,1001.48,VALID,0,VALID,85.0169,VALID,0,VALID,24.0329,VALID,96,VALID,0.373828,
2009-08-19, 01:57:04,VALID,1001.47,VALID,0,VALID,85.3678,VALID,0,VALID,23.9957,VALID,96,VALID,0.319531,
2009-08-19, 01:58:04,VALID,1001.46,VALID,0,VALID,85.6501,VALID,0,VALID,23.9372,VALID,96,VALID,0.383984,
2009-08-19, 01:59:04,VALID,1001.45,VALID,0,VALID,86.0011,VALID,0,VALID,23.8573,VALID,96,VALID,0.628125,
2009-08-19, 02:00:04,VALID,1001.43,VALID,0,VALID,86.3444,VALID,0,VALID,23.8396,VALID,96,VALID,0.488281,
2009-08-19, 02:01:04,VALID,1001.39,VALID,0,VALID,86.703,VALID,0,VALID,23.7597,VALID,96,VALID,0.458203,
2009-08-19, 02:02:04,VALID,1001.38,VALID,0,VALID,86.8022,VALID,0,VALID,23.7207,VALID,101,VALID,0.417188,
2009-08-19, 02:03:04,VALID,1001.33,VALID,0,VALID,86.764,VALID,0,VALID,23.7012,VALID,125,VALID,0.698047,
2009-08-19, 02:04:04,VALID,1001.35,VALID,0,VALID,86.4436,VALID,0,VALID,23.6817,VALID,137,VALID,0.629687,
2009-08-19, 02:05:04,VALID,1001.31,VALID,0,VALID,86.0545,VALID,0,VALID,23.7012,VALID,140,VALID,0.746094,
2009-08-19, 02:06:04,VALID,1001.33,VALID,0,VALID,85.3831,VALID,0,VALID,23.7402,VALID,149,VALID,0.697656,
2009-08-19, 02:07:04,VALID,1001.31,VALID,0,VALID,84.7498,VALID,0,VALID,23.8396,VALID,145,VALID,0.834375,
2009-08-19, 02:08:04,VALID,1001.35,VALID,0,VALID,84.1166,VALID,0,VALID,23.9159,VALID,148,VALID,1.09219,
2009-08-19, 02:09:04,VALID,1001.35,VALID,0,VALID,83.3765,VALID,0,VALID,24.0348,VALID,144,VALID,1.2707,
2009-08-19, 02:10:04,VALID,1001.34,VALID,0,VALID,82.9721,VALID,0,VALID,24.1324,VALID,136,VALID,1.25625,
2009-08-19, 02:11:04,VALID,1001.32,VALID,0,VALID,82.583,VALID,0,VALID,24.2104,VALID,137,VALID,1.15039,
2009-08-19, 02:12:04,VALID,1001.29,VALID,0,VALID,81.8658,VALID,0,VALID,24.2476,VALID,135,VALID,1.41797,
2009-08-19, 02:13:04,VALID,1001.27,VALID,0,VALID,81.4538,VALID,0,VALID,24.3062,VALID,138,VALID,1.00898,
2009-08-19, 02:14:04,VALID,1001.25,VALID,0,VALID,81.4767,VALID,0,VALID,24.3452,VALID,126,VALID,0.713281,
2009-08-19, 02:15:04,VALID,1001.23,VALID,0,VALID,82.0032,VALID,0,VALID,24.3452,VALID,73,VALID,0.625781,
2009-08-19, 02:16:04,VALID,1001.21,VALID,0,VALID,83.8648,VALID,0,VALID,24.2671,VALID,46,VALID,1.28242,
2009-08-19, 02:17:04,VALID,1001.22,VALID,0,VALID,84.5209,VALID,0,VALID,24.1128,VALID,46,VALID,0.553906,
2009-08-19, 02:18:04,VALID,1001.21,VALID,0,VALID,85.0397,VALID,0,VALID,23.9372,VALID,36,VALID,0.765234,
2009-08-19, 02:19:04,VALID,1001.2,VALID,0,VALID,85.1237,VALID,0,VALID,23.7207,VALID,26,VALID,1.68516,
2009-08-19, 02:20:04,VALID,1001.19,VALID,0,VALID,85.8485,VALID,0,VALID,23.5079,VALID,39,VALID,1.09883,
2009-08-19, 02:21:04,VALID,1001.14,VALID,0,VALID,86.6038,VALID,0,VALID,23.2915,VALID,31,VALID,1.89063,
2009-08-19, 02:22:04,VALID,1001.16,VALID,0,VALID,86.9929,VALID,0,VALID,23.1957,VALID,27,VALID,1.76523,
2009-08-19, 02:23:04,VALID,1001.14,VALID,0,VALID,87.3744,VALID,0,VALID,23.0769,VALID,30,VALID,1.66758,
2009-08-19, 02:24:04,VALID,1001.15,VALID,0,VALID,87.8093,VALID,0,VALID,23.0201,VALID,34,VALID,1.54648,
2009-08-19, 02:25:04,VALID,1001.13,VALID,0,VALID,88.0382,VALID,0,VALID,22.9598,VALID,32,VALID,1.07266,
2009-08-19, 02:26:04,VALID,1001.11,VALID,0,VALID,88.2747,VALID,0,VALID,22.9013,VALID,28,VALID,1.4332,
2009-08-19, 02:27:04,VALID,1001.09,VALID,0,VALID,88.412,VALID,0,VALID,22.8623,VALID,32,VALID,0.979297,
2009-08-19, 02:28:04,VALID,1001.1,VALID,0,VALID,88.5723,VALID,0,VALID,22.8445,VALID,34,VALID,0.704297,
2009-08-19, 02:29:04,VALID,1001.09,VALID,0,VALID,88.5951,VALID,0,VALID,22.8055,VALID,32,VALID,0.664844,
2009-08-19, 02:30:04,VALID,1001.06,VALID,0,VALID,88.7401,VALID,0,VALID,22.7452,VALID,31,VALID,0.836328,
2009-08-19, 02:31:04,VALID,1001.06,VALID,0,VALID,88.8164,VALID,0,VALID,22.7062,VALID,32,VALID,0.953906,
2009-08-19, 02:32:04,VALID,1001.1,VALID,0,VALID,88.9461,VALID,0,VALID,22.6477,VALID,38,VALID,1.12422,
2009-08-19, 02:33:04,VALID,1001.07,VALID,0,VALID,89.1063,VALID,0,VALID,22.6299,VALID,29,VALID,1.16172,
2009-08-19, 02:34:04,VALID,1001.1,VALID,0,VALID,89.2208,VALID,0,VALID,22.6104,VALID,31,VALID,0.892969,
2009-08-19, 02:35:04,VALID,1001.06,VALID,0,VALID,89.3963,VALID,0,VALID,22.5501,VALID,33,VALID,0.983984,
2009-08-19, 02:36:04,VALID,1001.06,VALID,0,VALID,89.4878,VALID,0,VALID,22.5519,VALID,48,VALID,1.08906,
2009-08-19, 02:37:04,VALID,1001.03,VALID,0,VALID,89.526,VALID,0,VALID,22.5111,VALID,46,VALID,1.15625,
2009-08-19, 02:38:04,VALID,1000.98,VALID,0,VALID,89.5794,VALID,0,VALID,22.5128,VALID,43,VALID,1.35703,
2009-08-19, 02:39:04,VALID,1001.01,VALID,0,VALID,89.587,VALID,0,VALID,22.4721,VALID,45,VALID,1.33867,
2009-08-19, 02:40:04,VALID,1000.99,VALID,0,VALID,89.648,VALID,0,VALID,22.4738,VALID,38,VALID,1.1332,
2009-08-19, 02:41:04,VALID,1001.01,VALID,0,VALID,89.6786,VALID,0,VALID,22.4348,VALID,36,VALID,0.282422,
2009-08-19, 02:42:04,VALID,1000.98,VALID,0,VALID,89.7701,VALID,0,VALID,22.3941,VALID,33,VALID,0.523828,
2009-08-19, 02:43:04,VALID,1000.94,VALID,0,VALID,89.8159,VALID,0,VALID,22.3763,VALID,34,VALID,0.290234,
2009-08-19, 02:44:04,VALID,1000.95,VALID,0,VALID,89.8998,VALID,0,VALID,22.3551,VALID,35,VALID,0.405078,
2009-08-19, 02:45:04,VALID,1000.94,VALID,0,VALID,89.9761,VALID,0,VALID,22.3373,VALID,35,VALID,0.288672,
2009-08-19, 02:46:04,VALID,1000.94,VALID,0,VALID,90.205,VALID,0,VALID,22.3178,VALID,37,VALID,0.790234,
2009-08-19, 02:47:04,VALID,1000.95,VALID,0,VALID,90.4797,VALID,0,VALID,22.3161,VALID,40,VALID,0.937891,
2009-08-19, 02:48:04,VALID,1000.97,VALID,0,VALID,90.7849,VALID,0,VALID,22.3763,VALID,53,VALID,1.09531,
2009-08-19, 02:49:04,VALID,1000.96,VALID,0,VALID,90.7467,VALID,0,VALID,22.3941,VALID,53,VALID,0.948828,
2009-08-19, 02:50:04,VALID,1000.96,VALID,0,VALID,90.5865,VALID,0,VALID,22.4331,VALID,36,VALID,0.864844,
2009-08-19, 02:51:04,VALID,1000.96,VALID,0,VALID,90.5102,VALID,0,VALID,22.4543,VALID,14,VALID,0.666016,
2009-08-19, 02:52:04,VALID,1000.94,VALID,0,VALID,90.4873,VALID,0,VALID,22.4136,VALID,332,VALID,0.695313,
2009-08-19, 02:53:04,VALID,1000.94,VALID,0,VALID,90.4034,VALID,0,VALID,22.3941,VALID,331,VALID,0.761328,
2009-08-19, 02:54:04,VALID,1000.91,VALID,0,VALID,90.5178,VALID,0,VALID,22.3551,VALID,340,VALID,1.10781,
2009-08-19, 02:55:04,VALID,1000.91,VALID,0,VALID,90.6551,VALID,0,VALID,22.3763,VALID,340,VALID,1.03789,
2009-08-19, 02:56:04,VALID,1000.91,VALID,0,VALID,90.5788,VALID,0,VALID,22.3958,VALID,336,VALID,0.841406,
2009-08-19, 02:57:04,VALID,1000.9,VALID,0,VALID,90.5712,VALID,0,VALID,22.3763,VALID,345,VALID,1.01719,
2009-08-19, 02:58:04,VALID,1000.91,VALID,0,VALID,90.4415,VALID,0,VALID,22.3551,VALID,4,VALID,0.817578,
2009-08-19, 02:59:04,VALID,1000.91,VALID,0,VALID,90.3042,VALID,0,VALID,22.3568,VALID,4,VALID,1.0418,
2009-08-19, 03:00:04,VALID,1000.91,VALID,0,VALID,90.3423,VALID,0,VALID,22.3356,VALID,5,VALID,0.802344,
2009-08-19, 03:01:04,VALID,1000.92,VALID,0,VALID,90.4797,VALID,0,VALID,22.3161,VALID,5,VALID,0.576953,
2009-08-19, 03:02:04,VALID,1000.91,VALID,0,VALID,90.617,VALID,0,VALID,22.3161,VALID,355,VALID,0.560938,
2009-08-19, 03:03:04,VALID,1000.96,VALID,0,VALID,90.7772,VALID,0,VALID,22.3568,VALID,343,VALID,0.606641,
2009-08-19, 03:04:04,VALID,1000.95,VALID,0,VALID,90.762,VALID,0,VALID,22.3763,VALID,343,VALID,0.327344,
2009-08-19, 03:05:04,VALID,1000.96,VALID,0,VALID,90.6933,VALID,0,VALID,22.3763,VALID,343,VALID,0.234766,
2009-08-19, 03:06:04,VALID,1000.97,VALID,0,VALID,90.6017,VALID,0,VALID,22.3356,VALID,343,VALID,0,
2009-08-19, 03:07:04,VALID,1000.96,VALID,0,VALID,90.6094,VALID,0,VALID,22.3178,VALID,343,VALID,0,
2009-08-19, 03:08:04,VALID,1000.96,VALID,0,VALID,90.5712,VALID,0,VALID,22.3178,VALID,343,VALID,0,
2009-08-19, 03:09:04,VALID,1000.98,VALID,0,VALID,90.6246,VALID,0,VALID,22.2788,VALID,343,VALID,0,
2009-08-19, 03:10:04,VALID,1000.91,VALID,0,VALID,90.9069,VALID,0,VALID,22.2592,VALID,343,VALID,0.280078,
2009-08-19, 03:11:04,VALID,1000.94,VALID,0,VALID,91.0443,VALID,0,VALID,22.2381,VALID,343,VALID,0.0816406,
2009-08-19, 03:12:04,VALID,1000.95,VALID,0,VALID,90.9909,VALID,0,VALID,22.2592,VALID,343,VALID,0,
2009-08-19, 03:13:04,VALID,1000.96,VALID,0,VALID,91.1816,VALID,0,VALID,22.2381,VALID,343,VALID,0.0761719,
2009-08-19, 03:14:04,VALID,1000.94,VALID,0,VALID,91.296,VALID,0,VALID,22.2576,VALID,343,VALID,0.391406,
2009-08-19, 03:15:04,VALID,1000.95,VALID,0,VALID,91.2808,VALID,0,VALID,22.2576,VALID,343,VALID,0.505469,
2009-08-19, 03:16:04,VALID,1000.91,VALID,0,VALID,91.1663,VALID,0,VALID,22.2983,VALID,343,VALID,0.579687,
2009-08-19, 03:17:04,VALID,1000.91,VALID,0,VALID,91.0366,VALID,0,VALID,22.2771,VALID,343,VALID,0.530078,
2009-08-19, 03:18:04,VALID,1000.9,VALID,0,VALID,90.8459,VALID,0,VALID,22.2381,VALID,343,VALID,0.731641,
2009-08-19, 03:19:04,VALID,1000.89,VALID,0,VALID,90.7849,VALID,0,VALID,22.2381,VALID,343,VALID,0.697266,
2009-08-19, 03:20:04,VALID,1000.9,VALID,0,VALID,90.7238,VALID,0,VALID,22.2381,VALID,343,VALID,0.617969,
2009-08-19, 03:21:04,VALID,1000.9,VALID,0,VALID,90.7849,VALID,0,VALID,22.2397,VALID,355,VALID,0.810547,
2009-08-19, 03:22:04,VALID,1000.94,VALID,0,VALID,90.5865,VALID,0,VALID,22.2186,VALID,356,VALID,0.367578,
2009-08-19, 03:23:04,VALID,1000.99,VALID,0,VALID,90.5254,VALID,0,VALID,22.2202,VALID,356,VALID,0.248828,
2009-08-19, 03:24:04,VALID,1000.95,VALID,0,VALID,90.4568,VALID,0,VALID,22.1795,VALID,358,VALID,0.457031,
2009-08-19, 03:25:04,VALID,1000.97,VALID,0,VALID,90.3881,VALID,0,VALID,22.1795,VALID,36,VALID,0.890234,
2009-08-19, 03:26:04,VALID,1000.98,VALID,0,VALID,90.3805,VALID,0,VALID,22.1422,VALID,41,VALID,0.968359,
2009-08-19, 03:27:04,VALID,1000.98,VALID,0,VALID,90.6475,VALID,0,VALID,22.121,VALID,46,VALID,1.13359,
2009-08-19, 03:28:04,VALID,1001.01,VALID,0,VALID,90.3423,VALID,0,VALID,22.1405,VALID,38,VALID,1.39766,
2009-08-19, 03:29:04,VALID,1000.99,VALID,0,VALID,90.2966,VALID,0,VALID,22.121,VALID,38,VALID,1.03594,
2009-08-19, 03:30:04,VALID,1001.02,VALID,0,VALID,90.5254,VALID,0,VALID,22.1015,VALID,38,VALID,0.601563,
2009-08-19, 03:31:04,VALID,1001.02,VALID,0,VALID,90.7162,VALID,0,VALID,22.121,VALID,40,VALID,0.264844,
2009-08-19, 03:32:04,VALID,1001.05,VALID,0,VALID,90.8459,VALID,0,VALID,22.121,VALID,12,VALID,0.33125,
2009-08-19, 03:33:04,VALID,1001.03,VALID,0,VALID,90.823,VALID,0,VALID,22.121,VALID,11,VALID,0.281641,
2009-08-19, 03:34:04,VALID,1001.03,VALID,0,VALID,90.9222,VALID,0,VALID,22.1015,VALID,341,VALID,0.488281,
2009-08-19, 03:35:04,VALID,1001.06,VALID,0,VALID,90.9527,VALID,0,VALID,22.082,VALID,355,VALID,0.654688,
2009-08-19, 03:36:04,VALID,1001.06,VALID,0,VALID,91.1587,VALID,0,VALID,22.082,VALID,4,VALID,0.924609,
2009-08-19, 03:37:04,VALID,1001.06,VALID,0,VALID,91.0137,VALID,0,VALID,22.082,VALID,6,VALID,0.944531,
2009-08-19, 03:38:04,VALID,1001.06,VALID,0,VALID,90.9298,VALID,0,VALID,22.043,VALID,7,VALID,0.880859,
2009-08-19, 03:39:04,VALID,1001.07,VALID,0,VALID,91.0061,VALID,0,VALID,22.0218,VALID,6,VALID,0.512891,
2009-08-19, 03:40:04,VALID,1001.05,VALID,0,VALID,91.09,VALID,0.112286,VALID,22.043,VALID,17,VALID,1.10312,
2009-08-19, 03:41:04,VALID,1001,VALID,0,VALID,90.9832,VALID,0,VALID,22.0625,VALID,16,VALID,1.68477,
2009-08-19, 03:42:04,VALID,1001,VALID,0,VALID,90.617,VALID,0,VALID,22.1015,VALID,17,VALID,2.04141,
2009-08-19, 03:43:04,VALID,1001.04,VALID,0,VALID,90.4339,VALID,0,VALID,22.1015,VALID,14,VALID,1.27617,
2009-08-19, 03:44:04,VALID,1001.06,VALID,0,VALID,90.4263,VALID,0,VALID,22.082,VALID,10,VALID,0.2625,
2009-08-19, 03:45:04,VALID,1001.05,VALID,0,VALID,90.7772,VALID,0,VALID,22.1422,VALID,256,VALID,0.786328,
2009-08-19, 03:46:04,VALID,1001.08,VALID,0,VALID,90.8917,VALID,0,VALID,22.1812,VALID,256,VALID,0.498437,